| time (UTC) | temp F | wind direction | speed knots | gust knots | rain 1hr in | rain 24hr in | rain mn in | humidity % | barometer mb |
| 20260505083054 | 40 | 40 | 0.0 | 1.7 | 0.00 | 0.03 | 0.00 | 90 | 1000.0 |
| 20260505081539 | 40 | 327 | 0.0 | 0.9 | 0.00 | 0.03 | 0.00 | 90 | 1000.3 |
| 20260505080045 | 40 | 297 | 0.0 | 1.7 | 0.00 | 0.03 | 0.00 | 90 | 1000.2 |
| 20260505074536 | 40 | 32 | 0.0 | 0.9 | 0.00 | 0.03 | 0.00 | 90 | 1000.4 |
| 20260505073038 | 40 | 30 | 0.0 | 5.2 | 0.00 | 0.03 | 0.00 | 90 | 1000.3 |
| 20260505071544 | 41 | 28 | 0.9 | 4.3 | 0.00 | 0.03 | 0.00 | 90 | 1000.4 |
| 20260505070033 | 41 | 342 | 0.0 | 2.6 | 0.00 | 0.03 | 0.00 | 89 | 1000.7 |
| 20260505064534 | 41 | 15 | 0.9 | 2.6 | 0.01 | 0.03 | 0.00 | 89 | 1000.6 |
| 20260505063030 | 41 | 312 | 0.0 | 2.6 | 0.02 | 0.03 | 0.00 | 89 | 1000.8 |
| 20260505061532 | 41 | 51 | 2.6 | 4.3 | 0.02 | 0.03 | 0.00 | 89 | 1000.4 |
| 20260505060034 | 41 | 342 | 0.0 | 3.5 | 0.02 | 0.03 | 0.03 | 89 | 1000.7 |
| 20260505054525 | 42 | 25 | 1.7 | 4.3 | 0.01 | 0.02 | 0.02 | 88 | 1000.9 |
| 20260505053026 | 42 | 7 | 0.0 | 4.3 | 0.00 | 0.01 | 0.01 | 85 | 1001.0 |
| 20260505051522 | 42 | 248 | 0.0 | 2.6 | 0.00 | 0.01 | 0.01 | 83 | 1000.9 |
| 20260505041519 | 42 | 27 | 1.7 | 5.2 | 0.00 | 0.01 | 0.01 | 82 | 999.6 |
| 20260505040018 | 42 | 23 | 1.7 | 6.1 | 0.00 | 0.01 | 0.01 | 83 | 999.4 |
| 20260505034518 | 43 | 356 | 3.5 | 7.0 | 0.00 | 0.01 | 0.01 | 83 | 999.6 |
| 20260505033026 | 43 | 349 | 2.6 | 8.7 | 0.00 | 0.01 | 0.01 | 82 | 999.4 |
| 20260505031517 | 43 | 1 | 5.2 | 8.7 | 0.00 | 0.01 | 0.01 | 81 | 999.2 |
| 20260505030016 | 43 | 341 | 1.7 | 3.5 | 0.00 | 0.01 | 0.01 | 80 | 999.4 |
| 20260505024515 | 43 | 342 | 1.7 | 4.3 | 0.00 | 0.01 | 0.01 | 81 | 999.4 |
| 20260505023015 | 43 | 30 | 0.0 | 3.5 | 0.01 | 0.01 | 0.01 | 80 | 999.3 |
| 20260505021515 | 43 | 16 | 1.7 | 5.2 | 0.01 | 0.01 | 0.01 | 80 | 999.2 |
| 20260505020017 | 43 | 42 | 2.6 | 6.1 | 0.01 | 0.01 | 0.01 | 79 | 999.3 |
| 20260505014518 | 45 | 329 | 1.7 | 9.6 | 0.01 | 0.01 | 0.01 | 75 | 999.1 |
| 20260505013011 | 49 | 27 | 7.0 | 11.3 | 0.00 | 0.00 | 0.00 | 59 | 999.1 |
| 20260505011509 | 50 | 297 | 0.0 | 9.6 | 0.00 | 0.00 | 0.00 | 54 | 998.8 |
| 20260505010009 | 50 | 290 | 3.5 | 9.6 | 0.00 | 0.00 | 0.00 | 51 | 998.3 |
| 20260505004513 | 52 | 11 | 4.3 | 11.3 | 0.00 | 0.00 | 0.00 | 47 | 997.4 |
| 20260505003007 | 53 | 330 | 5.2 | 12.2 | 0.00 | 0.00 | 0.00 | 45 | 997.3 |
| 20260505001507 | 54 | 354 | 4.3 | 9.6 | 0.00 | 0.00 | 0.00 | 42 | 996.8 |
| 20260505000010 | 55 | 2 | 6.1 | 12.2 | 0.00 | 0.00 | 0.00 | 40 | 996.9 |
| 20260504234505 | 57 | 330 | 6.1 | 13.0 | 0.00 | 0.00 | 0.00 | 36 | 996.5 |
| 20260504233005 | 57 | 14 | 5.2 | 9.6 | 0.00 | 0.00 | 0.00 | 37 | 996.9 |
| 20260504231504 | 58 | 313 | 6.1 | 15.6 | 0.00 | 0.00 | 0.00 | 37 | 996.8 |
| 20260504230004 | 58 | 314 | 5.2 | 16.5 | 0.00 | 0.00 | 0.00 | 36 | 996.7 |
| 20260504224502 | 58 | 251 | 1.7 | 8.7 | 0.00 | 0.00 | 0.00 | 36 | 996.7 |
| 20260504223002 | 58 | 179 | 4.3 | 8.7 | 0.00 | 0.00 | 0.00 | 35 | 996.6 |
| 20260504221504 | 59 | 220 | 0.9 | 4.3 | 0.00 | 0.00 | 0.00 | 29 | 996.5 |
| 20260504220107 | 59 | 259 | 2.6 | 7.8 | 0.00 | 0.00 | 0.00 | 32 | 996.6 |
| 20260504214606 | 58 | 235 | 0.9 | 13.0 | 0.00 | 0.00 | 0.00 | 34 | 997.0 |
| 20260504213059 | 60 | 268 | 2.6 | 8.7 | 0.00 | 0.00 | 0.00 | 28 | 996.4 |
| 20260504211559 | 61 | 319 | 3.5 | 10.4 | 0.00 | 0.00 | 0.00 | 27 | 996.2 |
| 20260504210105 | 62 | 300 | 3.5 | 10.4 | 0.00 | 0.00 | 0.00 | 24 | 996.2 |
| 20260504204613 | 64 | 248 | 1.7 | 5.2 | 0.00 | 0.00 | 0.00 | 22 | 996.4 |
| 20260504203124 | 64 | 265 | 1.7 | 7.0 | 0.00 | 0.00 | 0.00 | 23 | 996.6 |
| 20260504201552 | 62 | 237 | 6.1 | 13.0 | 0.00 | 0.00 | 0.00 | 24 | 996.9 |
| 20260504200051 | 62 | 255 | 0.9 | 6.1 | 0.00 | 0.00 | 0.00 | 23 | 997.0 |
| 20260504194550 | 62 | 356 | 1.7 | 5.2 | 0.00 | 0.00 | 0.00 | 25 | 997.0 |
| 20260504193051 | 62 | 266 | 2.6 | 8.7 | 0.00 | 0.00 | 0.00 | 20 | 997.1 |
| 20260504191553 | 64 | 218 | 0.9 | 6.1 | 0.00 | 0.00 | 0.00 | 20 | 997.1 |
| 20260504190052 | 66 | 135 | 4.3 | 8.7 | 0.00 | 0.00 | 0.00 | 20 | 997.1 |
| 20260504184544 | 65 | 59 | 0.0 | 7.8 | 0.00 | 0.00 | 0.00 | 20 | 997.5 |
| 20260504183042 | 64 | 138 | 4.3 | 10.4 | 0.00 | 0.00 | 0.00 | 21 | 997.9 |
| 20260504181540 | 66 | 172 | 4.3 | 10.4 | 0.00 | 0.00 | 0.00 | 22 | 998.0 |
| 20260504180036 | 64 | 206 | 5.2 | 11.3 | 0.00 | 0.00 | 0.00 | 22 | 998.1 |
| 20260504174534 | 64 | 237 | 2.6 | 7.0 | 0.00 | 0.00 | 0.00 | 23 | 998.4 |
| 20260504173030 | 63 | 292 | 2.6 | 7.8 | 0.00 | 0.00 | 0.00 | 27 | 998.8 |
| 20260504171527 | 61 | 219 | 3.5 | 11.3 | 0.00 | 0.00 | 0.00 | 28 | 999.3 |